This is the latest recevied weather packets stored in our database for station/object EA1FBN. If no packets are shown the sender has not sent any weather packets the latest 10 day(s).
| Time | Temp. | Humidity | Pressure | Rain* | Wind** | Luminosity | Snow |
|---|---|---|---|---|---|---|---|
| 1778072705 | 13.89° C | 50% | 1015.3 hPa | 0 mm | - | - | - |
| 1778072405 | 13.89° C | 53% | 1015.3 hPa | 0 mm | - | - | - |
| 1778072105 | 13.33° C | 58% | 1015.3 hPa | 0 mm | - | - | - |
| 1778071805 | 13.33° C | 56% | 1015.4 hPa | 0 mm | - | - | - |
| 1778071505 | 13.33° C | 55% | 1015.4 hPa | 0 mm | - | - | - |
| 1778071205 | 13.33° C | 54% | 1015.5 hPa | 0 mm | - | - | - |
| 1778070905 | 13.33° C | 53% | 1015.5 hPa | 0 mm | - | - | - |
| 1778070605 | 13.33° C | 56% | 1015.5 hPa | 0 mm | - | - | - |
| 1778070305 | 13.33° C | 57% | 1015.6 hPa | 0 mm | - | - | - |
| 1778070005 | 13.33° C | 57% | 1015.7 hPa | 0 mm | - | - | - |
| 1778069705 | 13.89° C | 56% | 1015.6 hPa | 0 mm | - | - | - |
| 1778069405 | 13.33° C | 58% | 1015.7 hPa | 0 mm | - | - | - |
| 1778069105 | 13.33° C | 58% | 1015.8 hPa | 0 mm | - | - | - |
| 1778068805 | 13.89° C | 58% | 1015.8 hPa | 0 mm | - | - | - |
| 1778068505 | 12.78° C | 59% | 1015.9 hPa | 0 mm | - | - | - |
| 1778068205 | 12.78° C | 58% | 1015.9 hPa | 0 mm | - | - | - |
| 1778067905 | 13.33° C | 56% | 1015.9 hPa | 0 mm | - | - | - |
| 1778067605 | 13.33° C | 54% | 1016 hPa | 0 mm | - | - | - |
| 1778067305 | 13.89° C | 56% | 1016 hPa | 0 mm | - | - | - |
| 1778067005 | 13.33° C | 57% | 1016.1 hPa | 0 mm | - | - | - |
| 1778066705 | 12.78° C | 58% | 1016.1 hPa | 0 mm | - | - | - |
| 1778066405 | 12.78° C | 59% | 1016.1 hPa | 0 mm | - | - | - |
| 1778066105 | 12.78° C | 58% | 1016.2 hPa | 0 mm | - | - | - |
| 1778065805 | 12.78° C | 58% | 1016.1 hPa | 0 mm | - | - | - |
| 1778065505 | 12.22° C | 60% | 1016.1 hPa | 0 mm | - | - | - |
* Rain latest hour (hover to see other rain measurements)
** Current wind speed in m/s (hover to see current wind gust speed)